Weather History for KPQL - February, 2013

Change the Weather History Date:

Tuesday, February 12, 2013

  Actual Average (KMOB) Record (KMOB)
Temperature  
Mean Temperature 64 °F 53 °F  
Max Temperature 70 °F 64 °F 78 °F (1976)
Min Temperature 57 °F 43 °F 6 °F (1899)
Degree Days  
Heating Degree Days 2 12  
Month to date heating degree days 157  
Since 1 July heating degree days 1278  
Cooling Degree Days 0 0  
Month to date cooling degree days 0  
Year to date cooling degree days 7  
Growing Degree Days 14 (Base 50)    
Moisture  
Dew Point 61 °F    
Average Humidity 93    
Maximum Humidity 100    
Minimum Humidity 88    
Precipitation  
Precipitation 0.51 in 0.19 in 2.37 in (1920)
Month to date precipitation 2.19  
Year to date precipitation 7.84  
Snow  
Snow 0.00 in 0.10 in - ()
Month to date snowfall 0.1  
Since 1 July snowfall 0.1  
Snow Depth -    
Sea Level Pressure  
Sea Level Pressure 29.89 in    
Wind  
Wind Speed 6 mph (East)    
Max Wind Speed 12 mph    
Max Gust Speed 21 mph    
Visibility 6 miles    
Events Rain , Thunderstorm    
T = Trace of Precipitation, MM = Missing Value Source: NWS Daily Summary

Daily Weather History Graph

Daily Weather History Graph

Search for Another Location

Airport or City:

Trip Planner

Search our weather history database for the weather conditions in past years. The results will help you decide how hot, cold, wet, or windy it might be!

Date:

Astronomy

Feb. 12, 2013 Rise Set
Actual Time 6:36 AM CST 5:40 PM CST
Civil Twilight 6:12 AM CST 6:04 PM CST
Nautical Twilight 5:43 AM CST 6:33 PM CST
Astronomical Twilight 5:15 AM CST 7:01 PM CST
Moon 7:48 AM CST (2/12) 8:23 PM CST (2/12)
Length of Visible Light 11h 52m
Length of Day
11h 03m
Waxing Crescent, 7% of the Moon is Illuminated
Feb 12
Waxing Crescent
Feb 17
First Quarter
Feb 25
Full
Mar 4
Last Quarter
Mar 11
New

Hourly Weather History & Observations

Time (CST) Temp. Dew Point Humidity Pressure Visibility Wind Dir Wind Speed Gust Speed Precip Events Conditions
12:53 AM 57.9 °F 55.0 °F 90% 30.06 in 10.0 mi NNE 4.6 mph - N/A   Overcast
1:14 AM 57.2 °F 55.4 °F 94% 30.05 in 10.0 mi NE 4.6 mph - N/A   Overcast
1:39 AM 57.2 °F 55.4 °F 94% 30.05 in 10.0 mi North 5.8 mph - N/A   Overcast
1:46 AM 57.2 °F 55.4 °F 94% 30.05 in 10.0 mi NNE 4.6 mph - N/A   Overcast
1:53 AM 57.9 °F 55.9 °F 93% 30.06 in 10.0 mi North 4.6 mph - N/A   Overcast
2:53 AM 57.0 °F 55.0 °F 93% 30.04 in 10.0 mi NNE 8.1 mph - N/A   Overcast
3:53 AM 57.0 °F 55.0 °F 93% 30.03 in 10.0 mi NNE 6.9 mph - N/A   Overcast
4:53 AM 57.0 °F 55.0 °F 93% 30.01 in 10.0 mi ENE 9.2 mph - N/A   Overcast
5:11 AM 57.2 °F 55.4 °F 94% 30.00 in 10.0 mi ENE 6.9 mph - N/A   Overcast
5:53 AM 57.0 °F 55.0 °F 93% 30.00 in 10.0 mi NE 6.9 mph - N/A   Overcast
6:53 AM 57.0 °F 55.0 °F 93% 30.00 in 10.0 mi ENE 8.1 mph - N/A   Overcast
7:53 AM 57.0 °F 55.0 °F 93% 29.97 in 10.0 mi East 6.9 mph - N/A   Overcast
8:53 AM 57.9 °F 55.0 °F 90% 29.99 in 10.0 mi ENE 5.8 mph - N/A   Overcast
9:53 AM 57.9 °F 55.9 °F 93% 29.98 in 8.0 mi ENE 5.8 mph - 0.00 in   Overcast
10:53 AM 60.1 °F 57.9 °F 93% 29.95 in 8.0 mi ENE 5.8 mph - N/A   Overcast
11:53 AM 60.1 °F 57.9 °F 93% 29.92 in 9.0 mi East 6.9 mph - N/A   Overcast
12:53 PM 61.0 °F 60.1 °F 97% 29.86 in 6.0 mi East 4.6 mph - 0.02 in   Overcast
1:15 PM 62.6 °F 60.8 °F 94% 29.83 in 2.5 mi ESE 8.1 mph - 0.06 in Rain , Thunderstorm Light Rain
1:20 PM 62.6 °F 60.8 °F 94% 29.81 in 0.8 mi ENE 6.9 mph - 0.18 in Rain , Thunderstorm Heavy Rain
1:39 PM 62.6 °F 60.8 °F 94% 29.82 in 1.8 mi ESE 3.5 mph - 0.42 in Rain Rain
1:46 PM 62.6 °F 60.8 °F 94% 29.82 in 2.5 mi ESE 3.5 mph - 0.43 in Rain Light Rain
1:53 PM 62.1 °F 61.0 °F 96% 29.82 in 2.5 mi Calm Calm - 0.44 in Rain Rain
2:13 PM 62.6 °F 62.6 °F 100% 29.80 in 4.0 mi Calm Calm - 0.01 in Rain Light Rain
2:26 PM 64.4 °F 62.6 °F 94% 29.79 in 2.0 mi SE 3.5 mph - 0.05 in Rain Heavy Rain
2:37 PM 66.2 °F 64.4 °F 94% 29.79 in 4.0 mi Variable 3.5 mph - 0.05 in Rain Light Rain
2:51 PM 66.2 °F 64.4 °F 94% 29.79 in 3.0 mi South 10.4 mph 17.3 mph 0.05 in   Overcast
2:53 PM 68.0 °F 66.0 °F 93% 29.79 in 3.0 mi Variable 6.9 mph 17.3 mph 0.05 in   Overcast
3:41 PM 69.8 °F 68.0 °F 94% 29.78 in 6.0 mi SSW 10.4 mph 20.7 mph N/A   Overcast
3:53 PM 70.0 °F 68.0 °F 93% 29.78 in 6.0 mi SSW 11.5 mph 20.7 mph N/A   Overcast
4:53 PM 69.1 °F 66.9 °F 93% 29.78 in 5.0 mi SSW 10.4 mph 20.7 mph N/A   Overcast
5:53 PM 69.1 °F 66.0 °F 90% 29.78 in 6.0 mi SW 9.2 mph 16.1 mph N/A   Overcast
6:53 PM 69.1 °F 66.0 °F 90% 29.78 in 6.0 mi SSW 8.1 mph 20.7 mph N/A   Overcast
7:53 PM 69.1 °F 66.9 °F 93% 29.80 in 5.0 mi SW 9.2 mph - N/A   Overcast
8:53 PM 69.1 °F 66.9 °F 93% 29.79 in 6.0 mi Variable 4.6 mph - N/A   Overcast
9:53 PM 68.0 °F 66.0 °F 93% 29.80 in 4.0 mi South 5.8 mph - N/A   Overcast
10:00 PM 66.2 °F 66.2 °F 100% 29.79 in 4.0 mi SSW 8.1 mph - N/A   Overcast
10:53 PM 68.0 °F 66.0 °F 93% 29.81 in 4.0 mi SW 4.6 mph - N/A   Overcast
11:17 PM 69.8 °F 66.2 °F 88% 29.81 in 6.0 mi WSW 6.9 mph - N/A   Overcast
11:53 PM 68.0 °F 66.0 °F 93% 29.79 in 6.0 mi SW 3.5 mph - N/A   Overcast